Date String (YYYY-MM-DD hh:mm:ss) UTC,Instrument flags,absolute air pressure of the measurement (hPa),sample flow rate (lpm),inlet stack bypass flow (lpm),air temperature of the measurement (°C),ambient temperature measured by the external sensor (°C),aerosol sample conditioner tube jacket temperature (°C),OPC LED temperature (°C),internal box temperature (°C),relative humidity of the measurement (%),span deviation,mass concentration of particles derived from Lorenz-Mie calculation of OPC scattering (μg/m³),mass concentration of particles derived from Lorenz-Mie calculation of OPC scattering (μg/m³),mass concentration of particles derived from Lorenz-Mie calculation of OPC scattering (μg/m³)
DateTimeUTC,F1_M11,P_M11,Q1_M11,Q2_M11,T1_M11,T2_M11,T3_M11,T4_M11,T5_M11,U1_M11,ZSPAN_M11,X0_M11,X2_M11,X1_M11
2023-09-05 20:00:00,SystemResetWarning,0833.2,5.00,000.00,028.1,025.7,000.0,036.3,029.4,24.2,0000.0,0009.07,0002.91,0002.05
2023-09-05 20:01:00,SystemResetWarning,0833.1,5.00,000.00,027.9,024.2,000.0,036.2,029.0,24.3,0000.0,0009.56,0002.94,0002.06
2023-09-05 20:02:00,SystemResetWarning,0833.1,5.01,000.00,027.8,024.1,000.0,036.1,028.9,24.0,0000.0,0009.80,0002.98,0002.06
2023-09-05 20:03:00,SystemResetWarning,0833.1,5.00,000.00,027.7,024.4,000.0,036.1,028.9,23.8,0000.0,0010.16,0002.99,0002.05
2023-09-05 20:04:00,SystemResetWarning,0833.1,5.00,000.00,027.7,024.9,000.0,036.1,029.1,23.9,0000.0,0010.63,0003.05,0002.06
2023-09-05 20:05:00,SystemResetWarning,0833.2,5.00,000.00,027.7,025.3,000.0,036.1,029.2,24.1,0000.0,0011.17,0003.07,0002.07
2023-09-05 20:06:00,SystemResetWarning,0833.2,4.99,000.00,027.8,025.7,000.0,036.2,029.3,24.0,0000.0,0011.12,0003.05,0002.08
2023-09-05 20:07:00,SystemResetWarning,0833.2,5.00,000.00,027.8,026.0,000.0,036.2,029.4,24.1,0000.0,0011.06,0003.04,0002.09
2023-09-05 20:08:00,SystemResetWarning,0833.2,5.00,000.00,027.9,026.4,000.0,036.2,029.5,24.4,0000.0,0010.91,0003.00,0002.06
2023-09-05 20:09:00,SystemResetWarning,0833.2,5.00,000.00,027.9,026.6,000.0,036.2,029.6,23.9,0000.0,0010.75,0003.02,0002.05
2023-09-05 20:10:00,SystemResetWarning,0833.2,4.99,000.00,028.0,026.8,000.0,036.3,029.7,23.8,0000.0,0010.53,0003.02,0002.04
2023-09-05 20:11:00,SystemResetWarning,0833.2,4.99,000.00,028.0,027.0,000.0,036.3,029.8,24.1,0000.0,0009.34,0003.02,0002.03
2023-09-05 20:12:00,SystemResetWarning,0833.2,5.00,000.00,028.1,027.2,000.0,036.3,029.9,23.5,0000.0,0009.68,0002.99,0002.04
2023-09-05 20:13:00,SystemResetWarning,0833.2,5.01,000.00,028.2,027.0,000.0,036.3,029.9,23.3,0000.0,0009.90,0003.04,0002.05
2023-09-05 20:14:00,SystemResetWarning,0833.2,5.00,000.00,028.1,025.4,000.0,036.3,029.3,23.4,0000.0,0009.67,0003.03,0002.06
2023-09-05 20:15:00,SystemResetWarning,0833.1,5.00,000.00,027.9,024.2,000.0,036.2,029.0,23.9,0000.0,0008.95,0002.98,0002.07
2023-09-05 20:16:00,SystemResetWarning,0833.1,5.01,000.00,027.8,024.2,000.0,036.1,029.0,23.5,0000.0,0008.39,0002.98,0002.09
2023-09-05 20:17:00,SystemResetWarning,0833.1,5.00,000.00,027.7,024.5,000.0,036.1,029.0,23.7,0000.0,0008.78,0002.99,0002.09
2023-09-05 20:18:00,SystemResetWarning,0833.1,5.00,000.00,027.7,024.9,000.0,036.1,029.1,23.9,0000.0,0009.15,0002.99,0002.08
2023-09-05 20:19:00,SystemResetWarning,0833.2,5.00,000.00,027.7,025.3,000.0,036.2,029.3,23.5,0000.0,0009.36,0003.03,0002.08
2023-09-05 20:20:00,SystemResetWarning,0833.1,5.01,000.00,027.8,025.7,000.0,036.2,029.4,23.9,0000.0,0009.47,0002.98,0002.10
2023-09-05 20:21:00,SystemResetWarning,0833.1,5.00,000.00,027.8,026.1,000.0,036.2,029.5,24.0,0000.0,0009.81,0002.96,0002.11
2023-09-05 20:22:00,SystemResetWarning,0833.1,5.00,000.00,027.9,026.4,000.0,036.2,029.6,23.8,0000.0,0009.56,0002.91,0002.10
2023-09-05 20:23:00,SystemResetWarning,0833.2,5.00,000.00,027.9,026.7,000.0,036.2,029.6,23.3,0000.0,0009.19,0002.91,0002.11
2023-09-05 20:24:00,SystemResetWarning,0833.2,5.00,000.00,028.0,026.9,000.0,036.3,029.7,23.4,0000.0,0008.88,0002.95,0002.13
2023-09-05 20:25:00,SystemResetWarning,0833.2,5.00,000.00,028.1,027.1,000.0,036.3,029.8,23.6,0000.0,0009.13,0002.97,0002.14
2023-09-05 20:26:00,SystemResetWarning,0833.1,5.00,000.00,028.1,027.2,000.0,036.3,029.9,23.7,0000.0,0009.08,0003.01,0002.14
2023-09-05 20:27:00,SystemResetWarning,0833.1,4.99,000.00,028.2,026.8,000.0,036.3,029.8,23.2,0000.0,0008.92,0003.01,0002.13
2023-09-05 20:28:00,SystemResetWarning,0833.1,4.99,000.00,028.1,025.2,000.0,036.3,029.2,23.4,0000.0,0009.09,0003.01,0002.12
2023-09-05 20:29:00,SystemResetWarning,0833.2,5.00,000.00,027.9,024.1,000.0,036.2,028.9,23.4,0000.0,0009.78,0003.02,0002.13
2023-09-05 20:30:00,SystemResetWarning,0833.0,5.01,000.00,027.8,024.2,000.0,036.2,028.9,23.9,0000.0,0010.06,0002.99,0002.12
2023-09-05 20:31:00,SystemResetWarning,0833.0,5.00,000.00,027.7,024.5,000.0,036.2,029.0,24.1,0000.0,0009.99,0003.01,0002.11
2023-09-05 20:32:00,SystemResetWarning,0833.0,5.00,000.00,027.7,025.0,000.0,036.2,029.1,24.9,0000.0,0009.64,0003.05,0002.10
2023-09-05 20:33:00,SystemResetWarning,0833.0,5.01,000.00,027.8,025.4,000.0,036.2,029.3,24.1,0000.0,0009.79,0003.10,0002.10
2023-09-05 20:34:00,SystemResetWarning,0833.0,4.99,000.00,027.8,025.8,000.0,036.2,029.4,24.0,0000.0,0009.67,0003.08,0002.09
2023-09-05 20:35:00,SystemResetWarning,0833.3,5.00,000.00,027.8,026.1,000.0,036.2,029.5,23.8,0000.0,0008.97,0002.97,0002.06
2023-09-05 20:36:00,SystemResetWarning,0833.2,5.00,000.00,027.9,026.4,000.0,036.2,029.6,23.8,0000.0,0008.31,0002.92,0002.05
2023-09-05 20:37:00,SystemResetWarning,0833.1,5.01,000.00,028.0,026.7,000.0,036.2,029.7,23.7,0000.0,0008.72,0002.88,0002.02
2023-09-05 20:38:00,SystemResetWarning,0833.1,5.00,000.00,028.0,026.9,000.0,036.3,029.8,23.3,0000.0,0008.58,0002.79,0002.00
2023-09-05 20:39:00,SystemResetWarning,0833.2,5.00,000.00,028.1,027.1,000.0,036.3,029.8,23.3,0000.0,0008.36,0002.79,0002.01
2023-09-05 20:40:00,SystemResetWarning,0833.1,5.00,000.00,028.1,027.3,000.0,036.3,029.9,23.3,0000.0,0006.86,0002.76,0002.01
2023-09-05 20:41:00,SystemResetWarning,0833.1,4.98,000.00,028.2,026.7,000.0,036.3,029.8,23.3,0000.0,0006.51,0002.76,0002.02
2023-09-05 20:42:00,SystemResetWarning,0833.0,5.00,000.00,028.0,025.0,000.0,036.3,029.2,23.3,0000.0,0007.46,0002.80,0002.02
2023-09-05 20:43:00,SystemResetWarning,0833.0,5.01,000.00,027.9,024.2,000.0,036.2,029.0,23.8,0000.0,0008.04,0002.84,0002.02
2023-09-05 20:44:00,SystemResetWarning,0833.1,5.02,000.00,027.8,024.3,000.0,036.2,029.0,23.4,0000.0,0007.93,0002.78,0002.02
2023-09-05 20:45:00,SystemResetWarning,0833.1,5.00,000.00,027.8,024.7,000.0,036.2,029.1,23.5,0000.0,0007.95,0002.77,0002.02
2023-09-05 20:46:00,SystemResetWarning,0833.0,5.00,000.00,027.8,025.1,000.0,036.2,029.2,23.7,0000.0,0008.50,0002.82,0002.04
2023-09-05 20:47:00,SystemResetWarning,0833.1,5.00,000.00,027.8,025.5,000.0,036.2,029.3,23.9,0000.0,0008.56,0002.83,0002.04
2023-09-05 20:48:00,SystemResetWarning,0833.0,5.00,000.00,027.8,025.9,000.0,036.2,029.4,24.3,0000.0,0008.29,0002.84,0002.05
2023-09-05 20:49:00,SystemResetWarning,0833.1,5.00,000.00,027.9,026.2,000.0,036.2,029.6,24.0,0000.0,0008.23,0002.86,0002.07
2023-09-05 20:50:00,SystemResetWarning,0833.1,5.00,000.00,027.9,026.5,000.0,036.2,029.6,23.5,0000.0,0008.26,0002.86,0002.07
2023-09-05 20:51:00,SystemResetWarning,0833.0,5.00,000.00,028.0,026.8,000.0,036.3,029.7,23.3,0000.0,0008.97,0002.86,0002.07
2023-09-05 20:52:00,SystemResetWarning,0833.2,5.00,000.00,028.1,027.0,000.0,036.3,029.8,23.7,0000.0,0009.73,0002.91,0002.06
2023-09-05 20:53:00,SystemResetWarning,0833.1,5.00,000.00,028.1,027.2,000.0,036.3,029.9,23.9,0000.0,0009.26,0002.90,0002.07
2023-09-05 20:54:00,SystemResetWarning,0833.1,4.99,000.00,028.2,027.1,000.0,036.3,029.9,24.2,0000.0,0008.51,0002.85,0002.07
2023-09-05 20:55:00,SystemResetWarning,0833.0,5.00,000.00,028.1,025.6,000.0,036.3,029.4,24.3,0000.0,0009.27,0002.85,0002.06
2023-09-05 20:56:00,SystemResetWarning,0833.0,5.01,000.00,028.0,024.3,000.0,036.2,029.0,24.9,0000.0,0009.47,0002.86,0002.06
2023-09-05 20:57:00,SystemResetWarning,0833.0,5.01,000.00,027.9,024.3,000.0,036.1,029.1,26.1,0000.0,0009.00,0002.82,0002.04
2023-09-05 20:58:00,SystemResetWarning,0833.0,5.01,000.00,027.8,024.6,000.0,036.2,029.1,26.3,0000.0,0008.84,0002.82,0002.03
2023-09-05 20:59:00,SystemResetWarning,0833.1,5.00,000.00,027.8,025.0,000.0,036.2,029.2,26.4,0000.0,0008.86,0002.83,0002.03
